This is the latest recevied weather packets stored in our database for station/object IW3HBX-13. If no packets are shown the sender has not sent any weather packets the latest 10 day(s).
| Time | Temp. | Humidity | Pressure | Rain* | Wind** | Luminosity | Snow |
|---|---|---|---|---|---|---|---|
| 1777540689 | 15° C | 41% | 1026.1 hPa | 0 mm | - | 688 W/m² | - |
| 1777540327 | 15° C | 42% | 1026.3 hPa | 0 mm | - | 674 W/m² | - |
| 1777539969 | 15° C | 42% | 1026.3 hPa | 0 mm | - | 666 W/m² | - |
| 1777539250 | 15° C | 41% | 1026.2 hPa | 0 mm | - | 648 W/m² | - |
| 1777538889 | 14.44° C | 42% | 1026.1 hPa | 0 mm | - | 634 W/m² | - |
| 1777538528 | 15° C | 42% | 1026 hPa | 0 mm | - | 625 W/m² | - |
| 1777538169 | 15° C | 43% | 1026 hPa | 0 mm | - | 606 W/m² | - |
| 1777537808 | 14.44° C | 44% | 1026 hPa | 0 mm | - | 592 W/m² | - |
| 1777537447 | 13.89° C | 44% | 1026 hPa | 0 mm | - | 579 W/m² | - |
| 1777537090 | 13.89° C | 45% | 1026 hPa | 0 mm | - | 590 W/m² | - |
| 1777536727 | 13.89° C | 45% | 1026 hPa | 0 mm | - | 644 W/m² | - |
| 1777536369 | 13.33° C | 46% | 1025.9 hPa | 0 mm | - | 573 W/m² | - |
| 1777535647 | 13.33° C | 46% | 1025.9 hPa | 0 mm | - | 456 W/m² | - |
| 1777535290 | 13.33° C | 46% | 1025.8 hPa | 0 mm | - | 405 W/m² | - |
| 1777534927 | 12.78° C | 47% | 1025.8 hPa | 0 mm | - | 353 W/m² | - |
| 1777534568 | 12.78° C | 46% | 1025.8 hPa | 0 mm | - | 305 W/m² | - |
| 1777534207 | 12.78° C | 46% | 1025.8 hPa | 0 mm | - | 320 W/m² | - |
| 1777533849 | 12.78° C | 47% | 1025.8 hPa | 0 mm | - | 217 W/m² | - |
| 1777533487 | 12.22° C | 47% | 1025.9 hPa | 0 mm | - | 193 W/m² | - |
| 1777533127 | 12.22° C | 46% | 1025.7 hPa | 0 mm | - | 184 W/m² | - |
| 1777532769 | 12.78° C | 46% | 1025.8 hPa | 0 mm | - | 190 W/m² | - |
| 1777532047 | 12.22° C | 46% | 1025.5 hPa | 0 mm | - | 176 W/m² | - |
| 1777531688 | 12.22° C | 46% | 1025.6 hPa | 0 mm | - | 166 W/m² | - |
| 1777531329 | 12.22° C | 47% | 1025.5 hPa | 0 mm | - | 162 W/m² | - |
| 1777530969 | 12.22° C | 47% | 1025.4 hPa | 0 mm | - | 159 W/m² | - |
* Rain latest hour (hover to see other rain measurements)
** Current wind speed in m/s (hover to see current wind gust speed)